When you browse on this site, cookies collect data to enhance your experience and personalize the content and advertising you see.
Visit our Privacy Policy to learn more. By continuing to use the site, you agree to this use of cookies and data.
  • en France
  • Liste des pays
  • À 7 jours
  • Température de l'eau
  • Carte météo
  • Widgets météo
  • user-avatar
    Se connecter

    Météo par heure à Hvoschevskiy

    Ce jour, 14 Octobre, Lundi

    Heure Température Précipitation Vent Pression Humidité
    00:00 +12°C° 0.1 mm 3 m/s 745 mmHg 93%
    01:00 +12°C° 0.1 mm 3 m/s 745 mmHg 94%
    02:00 +12°C° 0.1 mm 2 m/s 745 mmHg 95%
    03:00 +12°C° 0 mm 2 m/s 745 mmHg 95%
    04:00 +12°C° 0 mm 2 m/s 745 mmHg 95%
    05:00 +12°C° 0 mm 2 m/s 745 mmHg 95%
    06:00 +12°C° 0 mm 2 m/s 746 mmHg 94%
    07:00 +13°C° 0 mm 2 m/s 746 mmHg 92%
    08:00 +13°C° 0 mm 2 m/s 746 mmHg 91%
    09:00 +13°C° 0 mm 3 m/s 746 mmHg 87%
    10:00 +16°C° 0 mm 3 m/s 746 mmHg 83%
    11:00 +17°C° 0 mm 4 m/s 746 mmHg 79%
    12:00 +17°C° 0 mm 5 m/s 745 mmHg 76%
    13:00 +19°C° 0 mm 5 m/s 745 mmHg 73%
    14:00 +19°C° 0 mm 6 m/s 744 mmHg 71%
    15:00 +17°C° 0 mm 6 m/s 744 mmHg 72%
    16:00 +16°C° 0 mm 6 m/s 743 mmHg 74%
    17:00 +16°C° 0 mm 5 m/s 743 mmHg 76%
    18:00 +15°C° 0 mm 6 m/s 743 mmHg 74%
    19:00 +15°C° 0 mm 6 m/s 743 mmHg 73%
    20:00 +14°C° 0 mm 6 m/s 743 mmHg 72%
    21:00 +14°C° 0 mm 6 m/s 743 mmHg 73%
    22:00 +14°C° 0 mm 6 m/s 743 mmHg 73%
    23:00 +13°C° 0 mm 6 m/s 742 mmHg 73%

    Demain, 15 Octobre, Mardi

    Heure Température Précipitation Vent Pression Humidité
    00:00 +13°C° 0 mm 5 m/s 742 mmHg 75%
    01:00 +13°C° 0 mm 5 m/s 742 mmHg 77%
    02:00 +12°C° 0 mm 5 m/s 742 mmHg 80%
    03:00 +12°C° 0 mm 5 m/s 743 mmHg 84%
    04:00 +11°C° 0 mm 4 m/s 743 mmHg 87%
    05:00 +11°C° 0 mm 4 m/s 743 mmHg 91%
    06:00 +11°C° 0 mm 4 m/s 743 mmHg 90%
    07:00 +12°C° 0 mm 4 m/s 744 mmHg 88%
    08:00 +12°C° 0 mm 4 m/s 744 mmHg 87%
    09:00 +13°C° 0 mm 4 m/s 745 mmHg 81%
    10:00 +13°C° 0 mm 3 m/s 745 mmHg 74%
    11:00 +14°C° 0 mm 3 m/s 745 mmHg 68%
    12:00 +14°C° 0 mm 3 m/s 745 mmHg 67%
    13:00 +16°C° 0 mm 3 m/s 746 mmHg 65%
    14:00 +16°C° 0 mm 2 m/s 746 mmHg 63%
    15:00 +15°C° 0 mm 2 m/s 746 mmHg 68%
    16:00 +14°C° 0 mm 2 m/s 746 mmHg 72%
    17:00 +13°C° 0 mm 2 m/s 746 mmHg 76%
    18:00 +12°C° 0 mm 2 m/s 747 mmHg 77%
    19:00 +10°C° 0 mm 2 m/s 747 mmHg 78%
    20:00 +10°C° 0 mm 2 m/s 748 mmHg 79%
    21:00 +9°C° 0 mm 2 m/s 748 mmHg 82%
    22:00 +9°C° 0 mm 2 m/s 748 mmHg 85%
    23:00 +8°C° 0 mm 2 m/s 748 mmHg 88%

    Après-demain, 16 Octobre, Mercredi

    Heure Température Précipitation Vent Pression Humidité
    00:00 +8°C° 0 mm 2 m/s 748 mmHg 90%
    01:00 +8°C° 0 mm 2 m/s 749 mmHg 91%
    02:00 +8°C° 0 mm 2 m/s 749 mmHg 92%
    03:00 +7°C° 0 mm 2 m/s 749 mmHg 93%
    04:00 +7°C° 0 mm 2 m/s 749 mmHg 94%
    05:00 +7°C° 0 mm 2 m/s 749 mmHg 94%
    06:00 +8°C° 0 mm 3 m/s 749 mmHg 92%
    07:00 +8°C° 0 mm 3 m/s 749 mmHg 90%
    08:00 +9°C° 0 mm 3 m/s 749 mmHg 87%
    09:00 +10°C° 0 mm 4 m/s 749 mmHg 83%
    10:00 +12°C° 0 mm 4 m/s 749 mmHg 78%
    11:00 +13°C° 0 mm 4 m/s 749 mmHg 74%
    12:00 +13°C° 0 mm 4 m/s 748 mmHg 73%
    13:00 +14°C° 0 mm 4 m/s 748 mmHg 72%
    14:00 +14°C° 0 mm 4 m/s 748 mmHg 71%
    15:00 +13°C° 0 mm 4 m/s 748 mmHg 75%
    16:00 +12°C° 0 mm 4 m/s 747 mmHg 79%
    17:00 +12°C° 0 mm 4 m/s 747 mmHg 84%
    18:00 +11°C° 0 mm 4 m/s 747 mmHg 84%
    19:00 +10°C° 0 mm 5 m/s 747 mmHg 84%
    20:00 +10°C° 0 mm 5 m/s 747 mmHg 84%
    21:00 +10°C° 0 mm 5 m/s 747 mmHg 84%
    22:00 +10°C° 0 mm 5 m/s 746 mmHg 83%
    23:00 +9°C° 0 mm 5 m/s 746 mmHg 82%

    17 Octobre, Jeudi

    Heure Température Précipitation Vent Pression Humidité
    00:00 +9°C° 0 mm 5 m/s 746 mmHg 83%
    01:00 +9°C° 0 mm 5 m/s 745 mmHg 84%
    02:00 +9°C° 0 mm 5 m/s 745 mmHg 85%
    03:00 +9°C° 0 mm 5 m/s 745 mmHg 87%
    04:00 +9°C° 0 mm 5 m/s 745 mmHg 89%
    05:00 +9°C° 0 mm 5 m/s 745 mmHg 91%
    06:00 +9°C° 0 mm 5 m/s 744 mmHg 88%
    07:00 +10°C° 0 mm 5 m/s 744 mmHg 86%
    08:00 +10°C° 0 mm 5 m/s 744 mmHg 83%
    09:00 +13°C° 0 mm 5 m/s 744 mmHg 77%
    10:00 +14°C° 0 mm 5 m/s 744 mmHg 70%
    11:00 +15°C° 0 mm 5 m/s 744 mmHg 64%
    12:00 +16°C° 0 mm 5 m/s 744 mmHg 64%
    13:00 +17°C° 0 mm 4 m/s 744 mmHg 65%
    14:00 +18°C° 0 mm 4 m/s 743 mmHg 65%
    15:00 +15°C° 0 mm 4 m/s 743 mmHg 70%
    16:00 +14°C° 0 mm 3 m/s 743 mmHg 76%
    17:00 +13°C° 0 mm 3 m/s 743 mmHg 81%
    18:00 +13°C° 0 mm 3 m/s 743 mmHg 84%
    19:00 +13°C° 0 mm 3 m/s 744 mmHg 86%
    20:00 +12°C° 0 mm 3 m/s 744 mmHg 88%
    21:00 +12°C° 0 mm 3 m/s 744 mmHg 90%
    22:00 +11°C° 0 mm 3 m/s 744 mmHg 91%
    23:00 +12°C° 0 mm 2 m/s 744 mmHg 93%

    18 Octobre, Vendredi

    Heure Température Précipitation Vent Pression Humidité
    00:00 +12°C° 0 mm 2 m/s 744 mmHg 93%
    01:00 +10°C° 0 mm 2 m/s 744 mmHg 93%
    02:00 +10°C° 0 mm 2 m/s 744 mmHg 93%
    03:00 +10°C° 0 mm 2 m/s 744 mmHg 92%
    04:00 +11°C° 0 mm 1 m/s 744 mmHg 90%
    05:00 +11°C° 0 mm 1 m/s 745 mmHg 89%
    06:00 +12°C° 0 mm 1 m/s 745 mmHg 87%
    07:00 +12°C° 0 mm 1 m/s 745 mmHg 86%
    08:00 +12°C° 0 mm 1 m/s 746 mmHg 84%
    09:00 +13°C° 0 mm 2 m/s 746 mmHg 79%
    10:00 +14°C° 0 mm 2 m/s 747 mmHg 74%
    11:00 +15°C° 0 mm 2 m/s 747 mmHg 69%
    12:00 +15°C° 0 mm 2 m/s 747 mmHg 70%
    13:00 +14°C° 0 mm 3 m/s 748 mmHg 70%
    14:00 +14°C° 0 mm 3 m/s 748 mmHg 70%
    15:00 +13°C° 0 mm 3 m/s 748 mmHg 73%
    16:00 +12°C° 0 mm 4 m/s 748 mmHg 76%
    17:00 +11°C° 0 mm 4 m/s 748 mmHg 80%
    18:00 +10°C° 0 mm 4 m/s 749 mmHg 79%
    19:00 +10°C° 0 mm 4 m/s 749 mmHg 79%
    20:00 +10°C° 0 mm 4 m/s 749 mmHg 79%
    21:00 +8°C° 0 mm 4 m/s 749 mmHg 79%
    22:00 +8°C° 0 mm 4 m/s 749 mmHg 78%
    23:00 +8°C° 0 mm 5 m/s 749 mmHg 78%

    19 Octobre, Samedi

    Heure Température Précipitation Vent Pression Humidité
    00:00 +8°C° 0.2 mm 4 m/s 749 mmHg 79%
    01:00 +7°C° 0.2 mm 4 m/s 750 mmHg 79%
    02:00 +7°C° 0.2 mm 4 m/s 750 mmHg 79%
    03:00 +7°C° 0.5 mm 4 m/s 750 mmHg 81%
    04:00 +7°C° 0.5 mm 4 m/s 750 mmHg 83%
    05:00 +7°C° 0.5 mm 3 m/s 750 mmHg 86%
    06:00 +8°C° 0.4 mm 3 m/s 750 mmHg 87%
    07:00 +8°C° 0.4 mm 3 m/s 750 mmHg 88%
    08:00 +8°C° 0.4 mm 3 m/s 750 mmHg 90%
    09:00 +8°C° 0.2 mm 3 m/s 750 mmHg 89%
    10:00 +8°C° 0.2 mm 3 m/s 750 mmHg 89%
    11:00 +9°C° 0.2 mm 3 m/s 750 mmHg 88%
    12:00 +9°C° 0 mm 3 m/s 750 mmHg 87%
    13:00 +10°C° 0 mm 3 m/s 750 mmHg 85%
    14:00 +10°C° 0 mm 3 m/s 750 mmHg 84%
    15:00 +10°C° 0 mm 3 m/s 749 mmHg 87%
    16:00 +9°C° 0 mm 2 m/s 749 mmHg 90%
    17:00 +9°C° 0 mm 2 m/s 749 mmHg 93%
    18:00 +8°C° 0 mm 2 m/s 749 mmHg 93%
    19:00 +8°C° 0 mm 2 m/s 749 mmHg 94%
    20:00 +8°C° 0 mm 2 m/s 749 mmHg 95%
    21:00 +8°C° 0 mm 2 m/s 749 mmHg 94%
    22:00 +8°C° 0 mm 2 m/s 749 mmHg 94%
    23:00 +8°C° 0 mm 2 m/s 749 mmHg 93%
    Voir plus